Погода Верхняя Тойма

Поиск расширенной информации на нашем сайте:

Полезная информация:

Новости сайта



02.01.2020
Опубликован Долгосрочный прогноз погоды по городам России и ближнего зарубежья на январь 2020 года.
Карты: Прогноз на январь и февраль 2020 года, Сравнение прогнозируемой аномалии приземной температуры воздуха на январь 2020 года по разным моделям.




Погода Верхняя Тойма - сегодня

Время (UTC), дата Ветер
(°,м/с) 
Видим.   Явления Облачность Т
(°С)
Тd
(°С)
f(%) Тe
(°С)
Pmin
(гПа)
dP
(гПа)
Po
(мм)
O2
(г/м3)
Тmin Tmax R s Состояние
почвы
15 29.11.20 140 (ЮВ) 4000 м  снежные зёрна  10/10 300 м 
[St]
-9.2 -10.4 91 -12  1042.4  -0.5  776  325    -9.2  0.0     
18 29.11.20 140 (ЮВ) 20000 м  {снег}  10/10 450 м 
[Sc]
-8.6 -9.7 92 -11  1042.3  0.1  776  324           
21 29.11.20 140 (ЮВ) 20000 м    10/10 630 м 
[Sc]
-7.4 -8.6 91 -10  1041.8  -0.4  776  322           
00 30.11.20 130 (ЮВ) 20000 м    10/10 480 м 
[Sc]
-6.7 -7.9 91 -9  1040.7  -1  775  321           
03 30.11.20 140 (ЮВ) 20000 м    10/10 570 м 
[Sc]
-6 -7.2 91 -9  1039.8  -0.9  774  320  -9.2    0.0  равномерный
сухой снег
100% 
06 30.11.20 130 (ЮВ) 4000 м  снежные зёрна  10/10 240 м 
[St]
-5.4 -6.2 94 -8  1039.4  -0.4  774  319           
09 30.11.20 130 (ЮВ) 10 км  {снег}  10/10 270 м 
[St]
-4.2 -5.2 93 -6  1038.3  -1  773  317           
12 30.11.20 130 (ЮВ) 20000 м  {снег}  10/10 330 м 
[St]
-3.1 -4.1 93 -6  1037  -1.3  772  315           
15 30.11.20 130 (ЮВ) 20000 м    8/4 600 м средняя 
[Sc|Ac As]
-2.7 -3.8 92 -6  1035  -1.9  771  314    -2.4  0.0     
18 30.11.20 140 (ЮВ) 6{10}  20000 м    9/4 600 м средняя 
[Sc|Ac As]
-1.6 -3.2 89 -5  1033.1  -1.8  769  312           
21 30.11.20 150 (ЮВ) 20000 м    10/8 700 м средняя 
[Sc|Ac As]
-1.8 -3.8 86 -5  1032  -1.2  768  312           
00 01.12.20 160 (Ю) 6{10}  20000 м    10/8 750 м средняя 
[Sc|Ac As]
-2.6 -4.4 87 -7  1031.6  -0.4  768  313           
03 01.12.20 160 (Ю) 5{10}  20000 м  {ливн. осадки}  10/8 450 м средняя 
[Sc|Ac As]
-2.6 -4.5 87 -6  1031.1  -0.5  768  313  -2.8    0.0  равномерный
сухой снег
100% 
06 01.12.20 170 (Ю) 20000 м  {ливн. осадки}  10/10 630 м 
[Sc]
-2.8 -5.2 84 -6  1030.7  -0.4  767  313           
09 01.12.20 170 (Ю) 20000 м    10/8 600 м средняя 
[Sc|Ac As]
-3.6 -6.3 82 -7  1030.6  -0.1  767  314           
12 01.12.20 170 (Ю) 4000 м  слаб. ливневой снег  10/8 630 м кучево-дожд., средняя 
[Cb cap|Ac As]
-3.8 -6.1 84 -7  1030.2  -0.4  767  314           
15 01.12.20 170 (Ю) 4000 м  слаб. ливневой снег  10/10 270 м кучево-дожд. 
[Cb cap]
-4.1 -5.6 89 -6  1030.6  0.3  767  315    -2.6  0.4     
18 01.12.20 170 (Ю) 20000 м  {ливн. осадки}  10/8 540 м средняя 
[Sc|Ac As]
-4.2 -6.4 85 -6  1030.8  0.3  767  315           
21 01.12.20 170 (Ю) 20000 м    10/8 600 м средняя 
[Sc|Ac As]
-4.1 -6.2 85 -6  1031.4  0.6  768  315           
00 02.12.20 180 (Ю) 20000 м    10/8 930 м средняя 
[Sc|Ac As]
-3.7 -6.1 83 -7  1031.1  -0.3  768  314           
03 02.12.20 180 (Ю) 4000 м  слаб. ливневой снег  10/10 600 м кучево-дожд. 
[Cb cap]
-3.5 -5.7 85 -6  1030.9  -0.2  768  314  -4.7    0.4  равномерный
сухой снег
100% 
06 02.12.20 170 (Ю) 20000 м  в посл. час ливневой снег  10/10 480 м 
[Sc]
-3.8 -4.9 92 -7  1031.2  0.3  768  314           
09 02.12.20 170 (Ю) 20000 м  в посл. час ливневой снег  10/8 500 м кучево-дожд., средняя 
[Cb cap|Ac As]
-2.9 -3.8 93 -4  1031.6  0.5  768  313           
12 02.12.20 200 (Ю) 20000 м  {ливн. осадки}  10/8 540 м средняя 
[Sc|Ac As]
-1.7 -3.4 88 -3  1032.4  0.8  769  312           
15 02.12.20 190 (Ю) 20000 м  в посл. час ливневой снег  10/8 630 м средняя 
[Sc|Ac As]
-1.6 -3 90 -3  1033.1  0.7  769  312    -1.6     
Время (UTC), дата Ветер
(°,м/с) 
Видим.   Явления Облачность Т
(°С)
Тd
(°С)
f(%) Тe
(°С)
Pmin
(гПа)
dP
(гПа)
Po
(мм)
O2
(г/м3)
Тmin Tmax R s Состояние
почвы

Для получения пояснительной информации подведите курсор к названию столбца.

ПОГОДА Верхняя Тойма - архив

Всё, что Вы хотите узнать о погоде Верхняя Тойма - удобно и подробно!

Выберите нужную дату (начиная с 1 января 2019* года) и нажмите кнопку "Найти".
Будут отображены архивные сводки погоды по пункту Верхняя Тойма, начиная с указанной даты.


Отображать данные в формате CSV (для использования в таблицах Excel)


Внимание! Наш архив погоды предназначен исключительно для личного некоммерческого использования в познавательных целях. Если Вам необходимы официальные справки о состоянии погоды (для производственных, юридических, коммерческих и т.п. целей), обращайтесь в органы Росгидромета.

*Примечание: данная дата относится к архиву по метеостанциям СССР (Россия, СНГ, Балтия).
Архив по метеостанциям Зарубежной Европы и Азии (кроме Китая) хранится 10 дней, по другим регионам земного шара (Китай, Африка, Америка, Австралия, Океания) - 1 день.

Верхняя Тойма - район местоположения метеостанции


Название, широта, долгота, высота метеостанции:
Верхняя Тойма 62.2°ш. 45°д. 58 м над ур. моря [Российская Федерация]

Дополнительная информация

В oтличие oт бoльшинства пoгoдных сайтoв мы публикуем пoдрoбную метеoинфoрмацию в детальнoм прoфессиoнальнoм фoрмате.

Характеристики температуры и влажнoсти вoздуха измеряются на высoте 2 м в тени вдали oт зданий и деревьев.
Скoрoсть ветра измеряется на высoте 10 м (на урoвне рoста челoвека скoрoсть ветра ниже в 1.5-2 раза). Если метеoстанция нахoдится в гoрoде или в лесу, тo скoрoсть ветра занижена на 2-4 м/с пo сравнению с oткрытым местoм. Скoрoсть ветра над акватoриями крупных рек и oзёр, а также на вершинах хoлмoв на 2-5 м/с выше, чем в oбычных услoвиях.
Атмoсфернoе давление в разных тoчках местнoсти мoжет значительнo oтличаться oт давления на метеoстанции, в зависимoсти oт услoвий рельефа (при пoдъёме на 10 м давление пoнижается примернo на 1 мм рт.ст.).